Location: Newark
(44.6768°N, 22.5302°E)
Time: 23:16:58
(UTC+00:00)

CAS-6 - Pass Details

Date: 05 July 2022
Orbit: 613 x 635 km, 97.9° (Epoch: 07 August)

Event Time Altitude Azimuth Distance (km) Brightness Sun altitude
Exits shadow 21:16:30 32° 219° (SW) 1,080 ? -20.3°
Maximum altitude 21:17:52 41° 261° (W) 902 ? -20.4°
Drops below altitude 10° 21:22:00 10° 333° (NNW) 1,997 ? -20.6°
Sets 21:24:18 0° 341° (NNW) 2,905 ? -20.7°
